Weather History for Alexandria, LA

Change the Weather History Date:

Sunday, January 24, 2010

  Actual Average Record
Temperature  
Mean Temperature 58 °F 49 °F  
Max Temperature 67 °F 60 °F 81 °F (1950)
Min Temperature 48 °F 38 °F 4 °F (1948)
Degree Days  
Heating Degree Days 7 16  
Month to date heating degree days 483 384  
Since 1 July heating degree days 1314 1173  
Growing Degree Days 8 (Base 50)    
Moisture  
Dew Point 41 °F    
Average Humidity 58    
Maximum Humidity 86    
Minimum Humidity 29    
Precipitation  
Precipitation 0.00 in 0.18 in 4.80 in (1920)
Month to date precipitation 1.90 3.83  
Year to date precipitation 1.90 3.83  
Snow  
Snow 0.00 in - T in (1960)
Month to date snowfall 0.0  
Since 1 July snowfall 0.2  
Snow Depth 0.00 in    
Sea Level Pressure  
Sea Level Pressure 29.63 in    
Wind  
Wind Speed 11 mph (West)    
Max Wind Speed 23 mph    
Max Gust Speed 30 mph    
Visibility 10 miles    
Events      
T = Trace of Precipitation, MM = Missing Value Source: NWS Daily Summary

Daily Weather History Graph

Daily Weather History Graph

Search for Another Location

Airport:

Trip Planner

Search our weather history database for the weather conditions in past years. The results will help you decide how hot, cold, wet, or windy it might be!

Date:

Astronomy

Jan. 24, 2010 Rise Set
Actual Time 7:06 AM CST 5:38 PM CST
Civil Twilight 6:41 AM CST 6:03 PM CST
Nautical Twilight 6:11 AM CST 6:33 PM CST
Astronomical Twilight 5:42 AM CST 7:02 PM CST
Moon 12:04 PM CST (1/24) 1:31 AM CST (1/24)
Length of Visible Light 11h 22m
Length of Day
10h 31m
Waxing Gibbous, 64% of the Moon is Illuminated
Jan 24
Waxing Gibbous
Jan 30
Full
Feb 5
Last Quarter
Feb 13
New
Feb 21
First Quarter

Hourly Weather History & Observations

Time (CST) Temp. Dew Point Humidity Pressure Visibility Wind Dir Wind Speed Gust Speed Precip Events Conditions
12:53 AM 57.0 °F 54.0 °F 89% 29.59 in 10.0 mi West 4.6 mph - N/A   Clear
1:53 AM 55.0 °F 52.0 °F 89% 29.59 in 10.0 mi WSW 3.5 mph - N/A   Clear
2:53 AM 57.0 °F 48.0 °F 72% 29.58 in 10.0 mi WSW 6.9 mph - N/A   Clear
3:53 AM 55.0 °F 48.0 °F 77% 29.58 in 10.0 mi WSW 5.8 mph - N/A   Clear
4:53 AM 55.9 °F 46.0 °F 69% 29.56 in 10.0 mi WSW 5.8 mph - N/A   Clear
5:53 AM 57.0 °F 44.1 °F 62% 29.56 in 10.0 mi WSW 8.1 mph - N/A   Clear
6:53 AM 57.0 °F 42.1 °F 57% 29.56 in 10.0 mi West 9.2 mph - N/A   Clear
7:53 AM 55.9 °F 43.0 °F 62% 29.58 in 10.0 mi WSW 9.2 mph - N/A   Clear
8:53 AM 57.0 °F 41.0 °F 55% 29.61 in 10.0 mi WSW 11.5 mph - N/A   Clear
9:53 AM 57.0 °F 37.9 °F 49% 29.61 in 10.0 mi WSW 11.5 mph - N/A   Clear
10:53 AM 61.0 °F 39.0 °F 44% 29.60 in 10.0 mi WSW 13.8 mph 18.4 mph N/A   Clear
11:53 AM 63.0 °F 36.0 °F 37% 29.57 in 10.0 mi West 10.4 mph - N/A   Clear
12:53 PM 64.9 °F 36.0 °F 34% 29.54 in 10.0 mi West 13.8 mph 23.0 mph N/A   Clear
1:53 PM 66.0 °F 37.0 °F 34% 29.52 in 10.0 mi WSW 13.8 mph 19.6 mph N/A   Clear
2:53 PM 66.9 °F 34.0 °F 30% 29.52 in 10.0 mi West 12.7 mph 21.9 mph N/A   Clear
3:53 PM 66.0 °F 36.0 °F 33% 29.55 in 10.0 mi WNW 13.8 mph 20.7 mph N/A   Clear
4:53 PM 64.0 °F 37.0 °F 37% 29.58 in 10.0 mi WNW 12.7 mph 21.9 mph N/A   Clear
5:53 PM 61.0 °F 39.0 °F 44% 29.62 in 10.0 mi WNW 11.5 mph - N/A   Scattered Clouds
6:53 PM 59.0 °F 41.0 °F 51% 29.66 in 10.0 mi WNW 6.9 mph - N/A   Partly Cloudy
7:53 PM 57.0 °F 42.1 °F 57% 29.70 in 10.0 mi WNW 11.5 mph - N/A   Clear
8:53 PM 55.0 °F 44.1 °F 67% 29.74 in 10.0 mi NW 17.3 mph 25.3 mph N/A   Clear
9:37 PM 51.8 °F 39.2 °F 62% 29.77 in 10.0 mi NW 18.4 mph 27.6 mph N/A   Mostly Cloudy
9:44 PM 51.8 °F 39.2 °F 62% 29.78 in 10.0 mi NW 20.7 mph 26.5 mph N/A   Scattered Clouds
9:53 PM 51.1 °F 39.0 °F 63% 29.80 in 10.0 mi WNW 21.9 mph 28.8 mph N/A   Partly Cloudy
10:53 PM 50.0 °F 37.9 °F 63% 29.84 in 10.0 mi WNW 15.0 mph - N/A   Clear
11:53 PM 48.0 °F 37.9 °F 68% 29.87 in 10.0 mi WNW 8.1 mph - N/A   Clear